Tracking 19245 objects as of 17-Aug-2018
HD Live streaming from Space Station
objects crossing your sky now

FENGYUN 1C DEB

Track FENGYUN 1C DEB now!
10-day predictions


NORAD ID: 30213
Int'l Code: 1999-025VW
Perigee: 842.4 km
Apogee: 954.2 km
Inclination: 99.3 °
Period: 102.8 minutes
Semi major axis: 7269 km
RCS: 0.054 m2 (small)
Launch date: May 10, 1999
Source: People's Republic of China (PRC)
Launch site: Taiyaun Space Center, China (TSC)

Note: This is SATELLITE DEBRIS
aabbcc
Your satellite tracking list
Your tracking list is empty




NASA's NSSDC Master Catalog

Two Line Element Set (TLE):
1 30213U 99025VW  18228.95291024 +.00000753 +00000-0 +52191-3 0  9993
2 30213 099.2786 233.7960 0076939 077.1253 339.1214 14.00755831589842
Source of the keplerian elements: AFSPC